Location: DARK SKY Beskydy - Park tmavé oblohy, www.darkskybeskydy.cz
(49.4926°N, 18.5016°E)
Time: 11:07:00
(UTC+02:00)

Transit 4A - Pass Details

Date: 02 March 2024
Orbit: 871 x 971 km, 66.8° (Epoch: 24 April)

Event Time Altitude Azimuth Distance (km) Brightness Sun altitude
Exits shadow 04:10:07 - 322° (NW) 2,655 10.1 -22.7°
Reaches altitude 10° 04:10:30 10° 326° (NW) 2,582 10.0 -22.6°
Maximum altitude 04:13:41 15° 358° (N) 2,253 10.1 -22.1°
Drops below altitude 10° 04:16:51 10° 31° (NNE) 2,552 10.8 -21.6°
Sets 04:20:38 0° 55° (NE) 3,478 12.1 -21.1°
